Index of /20260420/WXO-DD/model_gdps/15km/12/070
Name Last modified Size Description
Parent Directory -
20260420T12Z_MSC_GDPS_AirTemp_AGL-120m_LatLon0.15_PT070H.grib2 2026-04-20 16:10 898K
20260420T12Z_MSC_GDPS_AirTemp_AGL-2m_LatLon0.15_PT070H.grib2 2026-04-20 16:10 1.0M
20260420T12Z_MSC_GDPS_AirTemp_AGL-40m_LatLon0.15_PT070H.grib2 2026-04-20 16:10 915K
20260420T12Z_MSC_GDPS_AirTemp_AGL-80m_LatLon0.15_PT070H.grib2 2026-04-20 16:10 906K
20260420T12Z_MSC_GDPS_Albedo_Sfc_LatLon0.15_PT070H.grib2 2026-04-20 16:10 244K
20260420T12Z_MSC_GDPS_ConvectivePrecip-Accum_Sfc_LatLon0.15_PT070H.grib2 2026-04-20 16:10 3.0M
20260420T12Z_MSC_GDPS_DewPointDepression_AGL-2m_LatLon0.15_PT070H.grib2 2026-04-20 16:10 745K
20260420T12Z_MSC_GDPS_DewPoint_AGL-2m_LatLon0.15_PT070H.grib2 2026-04-20 16:10 605K
20260420T12Z_MSC_GDPS_DownwardLongwaveRadiationFlux-Accum_Sfc_LatLon0.15_PT070H.grib2 2026-04-20 16:10 896K
20260420T12Z_MSC_GDPS_DownwardShortwaveRadiationFlux-Accum_Sfc_LatLon0.15_PT070H.grib2 2026-04-20 16:10 1.1M
20260420T12Z_MSC_GDPS_FreezingRain-Accum1h_Sfc_LatLon0.15_PT070H.grib2 2026-04-20 16:10 31K
20260420T12Z_MSC_GDPS_FreezingRain-Accum_Sfc_LatLon0.15_PT070H.grib2 2026-04-20 16:10 209K
20260420T12Z_MSC_GDPS_IcePellets-Accum1h_Sfc_LatLon0.15_PT070H.grib2 2026-04-20 16:10 14K
20260420T12Z_MSC_GDPS_IcePellets-Accum_Sfc_LatLon0.15_PT070H.grib2 2026-04-20 16:10 64K
20260420T12Z_MSC_GDPS_LatentHeatNetFlux_Sfc_LatLon0.15_PT070H.grib2 2026-04-20 16:10 721K
20260420T12Z_MSC_GDPS_NetLongwaveRadiationFlux-Accum_Sfc_LatLon0.15_PT070H.grib2 2026-04-20 16:10 953K
20260420T12Z_MSC_GDPS_NetShortwaveRadiationFlux-Accum_Sfc_LatLon0.15_PT070H.grib2 2026-04-20 16:10 1.1M
20260420T12Z_MSC_GDPS_O3MixingRatio_LatLon0.15_PT070H.grib2 2026-04-20 17:05 2.2M
20260420T12Z_MSC_GDPS_O3_EAtm_LatLon0.15_PT070H.grib2 2026-04-20 17:05 2.5M
20260420T12Z_MSC_GDPS_PlanetaryBoundaryLayerHeight_Sfc_LatLon0.15_PT070H.grib2 2026-04-20 16:10 2.5M
20260420T12Z_MSC_GDPS_Precip-Accum1h_Sfc_LatLon0.15_PT070H.grib2 2026-04-20 16:10 3.3M
20260420T12Z_MSC_GDPS_Precip-Accum_Sfc_LatLon0.15_PT070H.grib2 2026-04-20 16:10 4.8M
20260420T12Z_MSC_GDPS_PrecipRate_Sfc_LatLon0.15_PT070H.grib2 2026-04-20 16:10 3.0M
20260420T12Z_MSC_GDPS_Pressure_MSL_LatLon0.15_PT070H.grib2 2026-04-20 16:10 722K
20260420T12Z_MSC_GDPS_Pressure_Sfc_LatLon0.15_PT070H.grib2 2026-04-20 16:10 1.1M
20260420T12Z_MSC_GDPS_RadiativeTemp_Sfc_LatLon0.15_PT070H.grib2 2026-04-20 16:10 669K
20260420T12Z_MSC_GDPS_Rain-Accum1h_Sfc_LatLon0.15_PT070H.grib2 2026-04-20 16:10 1.7M
20260420T12Z_MSC_GDPS_Rain-Accum_Sfc_LatLon0.15_PT070H.grib2 2026-04-20 16:10 3.8M
20260420T12Z_MSC_GDPS_RelativeHumidity_AGL-2m_LatLon0.15_PT070H.grib2 2026-04-20 16:10 1.0M
20260420T12Z_MSC_GDPS_Runoff-Accum_Sfc_LatLon0.15_PT070H.grib2 2026-04-20 16:10 128K
20260420T12Z_MSC_GDPS_SensibleHeatNetFlux_Sfc_LatLon0.15_PT070H.grib2 2026-04-20 16:10 654K
20260420T12Z_MSC_GDPS_Snow-Accum1h_Sfc_LatLon0.15_PT070H.grib2 2026-04-20 16:10 1.1M
20260420T12Z_MSC_GDPS_Snow-Accum_Sfc_LatLon0.15_PT070H.grib2 2026-04-20 16:10 1.8M
20260420T12Z_MSC_GDPS_SnowDepth_Sfc_LatLon0.15_PT070H.grib2 2026-04-20 16:10 1.8M
20260420T12Z_MSC_GDPS_SoilTemp_DBS-0to10cm_LatLon0.15_PT070H.grib2 2026-04-20 16:10 507K
20260420T12Z_MSC_GDPS_SoilTemp_Sfc_LatLon0.15_PT070H.grib2 2026-04-20 16:10 579K
20260420T12Z_MSC_GDPS_SoilVolumetricWaterContent_DBS-0to10cm_LatLon0.15_PT070H.grib2 2026-04-20 16:10 558K
20260420T12Z_MSC_GDPS_SoilVolumetricWaterContent_DBS-0to1cm_LatLon0.15_PT070H.grib2 2026-04-20 16:10 649K
20260420T12Z_MSC_GDPS_SpecificHumidity_AGL-120m_LatLon0.15_PT070H.grib2 2026-04-20 16:10 1.1M
20260420T12Z_MSC_GDPS_SpecificHumidity_AGL-2m_LatLon0.15_PT070H.grib2 2026-04-20 16:10 1.2M
20260420T12Z_MSC_GDPS_SpecificHumidity_AGL-40m_LatLon0.15_PT070H.grib2 2026-04-20 16:10 1.1M
20260420T12Z_MSC_GDPS_SpecificHumidity_AGL-80m_LatLon0.15_PT070H.grib2 2026-04-20 16:10 1.1M
20260420T12Z_MSC_GDPS_SpecificHumidity_Sfc_LatLon0.15_PT070H.grib2 2026-04-20 16:10 673K
20260420T12Z_MSC_GDPS_TotalCloudCover_Sfc_LatLon0.15_PT070H.grib2 2026-04-20 16:10 827K
20260420T12Z_MSC_GDPS_UVIndex-ClearSky_Sfc_LatLon0.15_PT070H.grib2 2026-04-20 17:05 1.1M
20260420T12Z_MSC_GDPS_UVIndex_Sfc_LatLon0.15_PT070H.grib2 2026-04-20 17:05 1.4M
20260420T12Z_MSC_GDPS_UpwardLongwaveRadiationFlux_NTAtm_LatLon0.15_PT070H.grib2 2026-04-20 16:10 833K
20260420T12Z_MSC_GDPS_WindDir_AGL-10m_LatLon0.15_PT070H.grib2 2026-04-20 16:10 1.3M
20260420T12Z_MSC_GDPS_WindDir_AGL-120m_LatLon0.15_PT070H.grib2 2026-04-20 16:10 1.3M
20260420T12Z_MSC_GDPS_WindDir_AGL-40m_LatLon0.15_PT070H.grib2 2026-04-20 16:10 1.4M
20260420T12Z_MSC_GDPS_WindDir_AGL-80m_LatLon0.15_PT070H.grib2 2026-04-20 16:10 1.3M
20260420T12Z_MSC_GDPS_WindDir_IsbL-0700_LatLon0.15_PT070H.grib2 2026-04-20 16:10 1.6M
20260420T12Z_MSC_GDPS_WindGust-Max_AGL-10m_LatLon0.15_PT070H.grib2 2026-04-20 16:10 2.2M
20260420T12Z_MSC_GDPS_WindGust-Min_AGL-10m_LatLon0.15_PT070H.grib2 2026-04-20 16:10 2.2M
20260420T12Z_MSC_GDPS_WindGust_AGL-10m_LatLon0.15_PT070H.grib2 2026-04-20 16:10 2.2M
20260420T12Z_MSC_GDPS_WindSpeed_AGL-10m_LatLon0.15_PT070H.grib2 2026-04-20 16:10 1.1M
20260420T12Z_MSC_GDPS_WindSpeed_AGL-120m_LatLon0.15_PT070H.grib2 2026-04-20 16:10 1.2M
20260420T12Z_MSC_GDPS_WindSpeed_AGL-40m_LatLon0.15_PT070H.grib2 2026-04-20 16:10 1.2M
20260420T12Z_MSC_GDPS_WindSpeed_AGL-80m_LatLon0.15_PT070H.grib2 2026-04-20 16:10 1.2M
20260420T12Z_MSC_GDPS_WindSpeed_IsbL-0700_LatLon0.15_PT070H.grib2 2026-04-20 16:10 1.5M
20260420T12Z_MSC_GDPS_WindU_AGL-10m_LatLon0.15_PT070H.grib2 2026-04-20 16:10 1.6M
20260420T12Z_MSC_GDPS_WindU_AGL-120m_LatLon0.15_PT070H.grib2 2026-04-20 16:10 965K
20260420T12Z_MSC_GDPS_WindU_AGL-40m_LatLon0.15_PT070H.grib2 2026-04-20 16:10 962K
20260420T12Z_MSC_GDPS_WindU_AGL-80m_LatLon0.15_PT070H.grib2 2026-04-20 16:10 966K
20260420T12Z_MSC_GDPS_WindU_IsbL-0700_LatLon0.15_PT070H.grib2 2026-04-20 16:10 1.2M
20260420T12Z_MSC_GDPS_WindV_AGL-10m_LatLon0.15_PT070H.grib2 2026-04-20 16:10 1.3M
20260420T12Z_MSC_GDPS_WindV_AGL-120m_LatLon0.15_PT070H.grib2 2026-04-20 16:10 964K
20260420T12Z_MSC_GDPS_WindV_AGL-40m_LatLon0.15_PT070H.grib2 2026-04-20 16:10 961K
20260420T12Z_MSC_GDPS_WindV_AGL-80m_LatLon0.15_PT070H.grib2 2026-04-20 16:10 965K
20260420T12Z_MSC_GDPS_WindV_IsbL-0700_LatLon0.15_PT070H.grib2 2026-04-20 16:10 1.2M